Port Saint Joe - Mexico Beach Weather Center

Moon Phase Calendar



Online Cameras

 


      

Current Conditions in Port Saint Joe
7/13/2024 11:09:00 AM

90°F
Feels Like 103
Clouds
Humidity
78%
Pressure
30.15"
Wind
1 mph (ENE)
Dew Point
82°F
UV Index
6/10 (High)
Visibility
6 mi

Hourly Forecast

Date & Time Sat, Jul 13
11:00 AM
Sat, Jul 13
12:00 PM
Sat, Jul 13
1:00 PM
Sat, Jul 13
2:00 PM
Sat, Jul 13
3:00 PM
Sat, Jul 13
4:00 PM
Sat, Jul 13
5:00 PM
Sat, Jul 13
6:00 PM
Sat, Jul 13
7:00 PM
Sat, Jul 13
8:00 PM
Sat, Jul 13
9:00 PM
Sat, Jul 13
10:00 PM
Sat, Jul 13
11:00 PM
Sun, Jul 14
12:00 AM
Sun, Jul 14
1:00 AM
Sun, Jul 14
2:00 AM
Sun, Jul 14
3:00 AM
Sun, Jul 14
4:00 AM
Sun, Jul 14
5:00 AM
Sun, Jul 14
6:00 AM
Sun, Jul 14
7:00 AM
Sun, Jul 14
8:00 AM
Sun, Jul 14
9:00 AM
Sun, Jul 14
10:00 AM
Sun, Jul 14
11:00 AM
Sun, Jul 14
12:00 PM
Sun, Jul 14
1:00 PM
Sun, Jul 14
2:00 PM
Sun, Jul 14
3:00 PM
Sun, Jul 14
4:00 PM
Sun, Jul 14
5:00 PM
Sun, Jul 14
6:00 PM
Sun, Jul 14
7:00 PM
Sun, Jul 14
8:00 PM
Sun, Jul 14
9:00 PM
Sun, Jul 14
10:00 PM
Sun, Jul 14
11:00 PM
Mon, Jul 15
12:00 AM
Mon, Jul 15
1:00 AM
Mon, Jul 15
2:00 AM
Mon, Jul 15
3:00 AM
Mon, Jul 15
4:00 AM
Mon, Jul 15
5:00 AM
Mon, Jul 15
6:00 AM
Mon, Jul 15
7:00 AM
Mon, Jul 15
8:00 AM
Mon, Jul 15
9:00 AM
Mon, Jul 15
10:00 AM
Condition
Clouds

Clouds

Clouds

Clouds

Clouds

Clouds

Clouds

Clouds

Clouds

Clouds

Clear

Clear

Clear

Clear

Clouds

Clouds

Clear

Clouds

Clouds

Rain

Rain

Clouds

Rain

Rain

Clouds

Clouds

Clouds

Clouds

Clouds

Clouds

Clouds

Clouds

Clouds

Clouds

Clouds

Clouds

Clouds

Clouds

Clouds

Clouds

Clear

Clear

Clear

Clouds

Clouds

Rain

Rain

Rain
Temperature 90°F90°F91°F90°F88°F88°F89°F89°F88°F86°F85°F85°F85°F84°F84°F84°F83°F83°F82°F81°F81°F81°F83°F87°F90°F91°F91°F91°F89°F89°F89°F88°F87°F86°F85°F85°F85°F84°F84°F84°F84°F83°F83°F83°F83°F83°F83°F86°F
Feels Like 103°F103°F103°F102°F97°F95°F95°F95°F94°F93°F92°F92°F92°F92°F92°F90°F90°F89°F88°F85°F86°F87°F89°F93°F96°F97°F97°F97°F96°F96°F97°F95°F94°F94°F93°F93°F93°F92°F91°F90°F90°F90°F90°F89°F89°F90°F90°F93°F
Cloudiness 40%39%37%38%63%73%71%61%50%43%9%4%7%8%12%18%10%11%11%11%18%19%10%28%41%37%36%36%54%58%49%48%51%49%49%75%80%62%51%44%9%9%10%11%12%12%39%73%
Visibility 6 mi6 mi6 mi6 mi6 mi6 mi6 mi6 mi6 mi6 mi6 mi6 mi6 mi6 mi6 mi6 mi6 mi6 mi6 mi6 mi6 mi6 mi6 mi6 mi6 mi6 mi6 mi6 mi6 mi6 mi6 mi6 mi6 mi6 mi6 mi6 mi6 mi6 mi6 mi6 mi6 mi6 mi6 mi6 mi6 mi6 mi6 mi6 mi
Precipitation 0%0%0%0%0%0%0%0%0%0%0%0%0%0%0%0%0%0%0%75%100%79%99%100%78%76%74%71%0%0%0%0%0%0%0%0%0%0%0%0%0%0%0%0%0%71%100%100%
Humidity 78%72%66%63%61%57%54%56%59%63%69%70%71%71%72%72%72%72%73%78%79%80%74%63%54%51%51%52%57%57%57%60%62%65%68%68%69%71%71%71%72%72%72%73%73%73%73%66%
Dew Point 82°F80°F78°F76°F73°F71°F71°F71°F71°F72°F73°F74°F74°F74°F74°F74°F73°F73°F73°F73°F73°F74°F74°F73°F70°F70°F70°F71°F71°F72°F72°F72°F73°F73°F74°F74°F74°F74°F74°F74°F73°F73°F74°F73°F73°F74°F74°F73°F
Pressure 30.15"30.15"30.15"30.15"30.15"30.12"30.12"30.12"30.12"30.12"30.12"30.12"30.12"30.12"30.12"30.12"30.09"30.09"30.09"30.09"30.12"30.12"30.12"30.12"30.12"30.12"30.12"30.09"30.09"30.06"30.06"30.06"30.06"30.06"30.06"30.06"30.06"30.06"30.06"30.03"30.03"30.03"30.03"30.03"30.03"30.06"30.06"30.06"
Wind Speed 4.8 mph6.7 mph10 mph11.8 mph11.8 mph10.3 mph10.1 mph9.6 mph8.2 mph7.2 mph6.4 mph6.4 mph7.8 mph7.8 mph7.5 mph5.6 mph4.8 mph3.7 mph3.3 mph3.6 mph3.1 mph3.9 mph4 mph2.7 mph1.4 mph4.7 mph8.3 mph11.4 mph11 mph11 mph10.7 mph9.2 mph8.7 mph7.4 mph8.5 mph7.2 mph6.7 mph5.8 mph6.6 mph6.1 mph5.9 mph5.9 mph5.9 mph4.7 mph3.7 mph3.4 mph2.3 mph1.9 mph
Wind
Direction
311°
NW
277°
W
253°
WSW
234°
SW
227°
SW
222°
SW
226°
SW
234°
SW
241°
WSW
245°
WSW
260°
W
261°
W
258°
WSW
275°
W
283°
WNW
294°
WNW
294°
WNW
293°
WNW
306°
NW
310°
NW
355°
N
46°
NE
47°
NE
69°
ENE
171°
S
213°
SSW
221°
SW
228°
SW
231°
SW
231°
SW
237°
WSW
238°
WSW
242°
WSW
250°
WSW
278°
W
283°
WNW
276°
W
253°
WSW
240°
WSW
245°
WSW
264°
W
269°
W
277°
W
280°
W
267°
W
274°
W
276°
W
245°
WSW

Daily Forecast

Date High Low Precip. Humidity
Today
Jul 13

Rain
91 °F
83 °F
23%
66%
Sunday
Jul 14

Rain
91 °F
81 °F
100%
51%
Monday
Jul 15

Rain
91 °F
83 °F
100%
54%
Tuesday
Jul 16

Rain
90 °F
82 °F
100%
58%
Wednesday
Jul 17

Rain
89 °F
80 °F
70%
56%
Thursday
Jul 18

Rain
89 °F
82 °F
100%
57%
Friday
Jul 19

Rain
89 °F
82 °F
37%
59%
Saturday
Jul 20

Rain
89 °F
80 °F
92%
59%
Sunday
Jul 21

Rain
88 °F
80 °F
100%
58%
Monday
Jul 22

Rain
86 °F
77 °F
91%
65%
Tuesday
Jul 23

Rain
87 °F
79 °F
100%
67%
Wednesday
Jul 24

Rain
87 °F
81 °F
100%
64%
Thursday
Jul 25

Rain
88 °F
83 °F
100%
61%
Friday
Jul 26

Rain
90 °F
80 °F
100%
55%
Saturday
Jul 27

Rain
89 °F
78 °F
100%
56%
Sunday
Jul 28

Rain
88 °F
81 °F
100%
60%

Temperature 8-14 Day Outlook



Precipitation 8-14 Day Outlook






About Us
Contact Us
Site Map
Search Site
Advertise With Us
   
PortSaintJoe.USGulf.info
THE PORT SAINT JOE - MEXICO BEACH WEBSITE

Copyright 2024, Coastal Town
Privacy    |    Legal